Date_and_time,latitude,longitude,wind_speed,RelWindDirFrom,WindDirFrom,air_pressure,air_temperature,relative_humidity,Temp,platform_speed_wrt_ground,air_pressure_at_mean_sea_level,platform_orientation
2018-08-28 00:00,50.6304366666667,-96.9807683333333,12.2,16.6,20,985.00,15.3,59,18.39,0.0,1011.31,90.0
2018-08-28 00:10,50.6304366666667,-96.98077,12.1,16.4,17,985.04,15.3,61,18.39,0.0,1011.35,90.0
2018-08-28 00:20,50.6304366666667,-96.98077,12.0,16.0,17,985.06,15.3,61,18.38,0.0,1011.37,90.0
2018-08-28 00:30,50.6304516666667,-96.9807816666667,11.8,15.3,13,985.00,15.4,61,18.38,0.0,1011.30,90.0
2018-08-28 00:40,50.6304333333333,-96.9807766666667,11.5,14.8,15,984.94,15.4,59,18.40,0.0,1011.23,90.0
2018-08-28 00:50,50.6304383333333,-96.980765,12.0,15.6,17,984.89,15.4,59,18.41,0.0,1011.17,90.0
2018-08-28 01:00,50.6304433333333,-96.9807766666667,11.3,17.1,16,984.77,15.4,60,18.42,0.0,1011.05,270.0
2018-08-28 01:10,50.6304416666667,-96.9807783333333,12.0,15.5,20,984.71,15.5,60,18.42,0.0,1010.98,270.0
2018-08-28 01:20,50.6304433333333,-96.9807733333333,12.5,16.0,20,984.68,15.6,59,18.42,0.0,1010.95,270.0
2018-08-28 01:30,50.6304416666667,-96.9807733333333,13.1,16.7,22,984.60,15.6,60,18.40,0.0,1010.86,270.0
2018-08-28 01:40,50.6304433333333,-96.980775,13.5,16.6,29,984.54,15.6,60,18.38,0.0,1010.81,270.0
2018-08-28 01:50,50.6304433333333,-96.9807733333333,12.5,15.7,33,984.63,15.5,62,18.37,0.0,1010.90,270.0
2018-08-28 02:00,50.6304433333333,-96.9807733333333,13.7,16.6,40,984.71,15.4,63,18.37,0.0,1010.99,0.0
2018-08-28 02:10,50.6304433333333,-96.9807716666667,12.2,16.5,35,984.84,15.4,63,18.38,0.0,1011.13,0.0
2018-08-28 02:20,50.6304433333333,-96.98077,13.7,17.5,48,984.85,15.3,63,18.38,0.0,1011.14,0.0
2018-08-28 02:30,50.6304433333333,-96.98077,14.4,18.0,50,984.93,15.2,65,18.37,0.0,1011.22,0.0
2018-08-28 02:40,50.6304383333333,-96.9807633333333,15.0,19.8,51,985.01,15.1,65,18.36,0.0,1011.31,0.0
2018-08-28 02:50,50.63044,-96.9807733333333,15.1,19.6,50,985.10,14.9,66,18.36,0.0,1011.41,0.0
2018-08-28 03:00,50.6304366666667,-96.980775,14.5,17.5,56,985.34,14.8,67,18.34,0.0,1011.65,270.0
2018-08-28 03:10,50.630435,-96.9807716666667,15.1,20.6,53,985.47,14.7,66,18.31,0.0,1011.80,270.0
2018-08-28 03:20,50.6304366666667,-96.9807716666667,15.2,18.7,52,985.55,14.6,67,18.30,0.0,1011.87,270.0
2018-08-28 03:30,50.6304366666667,-96.98077,15.0,20.4,56,985.68,14.4,69,18.31,0.0,1012.02,270.0
2018-08-28 03:40,50.6304383333333,-96.98077,14.5,18.3,57,985.87,14.3,70,18.30,0.0,1012.22,270.0
2018-08-28 03:50,50.6304383333333,-96.98077,14.7,18.5,66,986.03,14.1,69,18.31,0.0,1012.40,270.0
2018-08-28 04:00,50.63044,-96.98077,14.6,17.4,60,986.03,14.0,68,18.34,0.0,1012.40,90.0
2018-08-28 04:10,50.63044,-96.98077,13.2,17.1,57,986.13,13.9,67,18.32,0.0,1012.52,90.0
2018-08-28 04:20,50.6304383333333,-96.9807683333333,12.4,15.6,51,986.16,13.8,67,18.28,0.0,1012.56,90.0
2018-08-28 04:30,50.6304383333333,-96.9807683333333,11.5,15.3,53,986.19,13.7,67,18.29,0.0,1012.59,90.0
2018-08-28 04:40,50.6304383333333,-96.9807683333333,12.8,16.2,56,986.12,13.7,67,18.30,0.0,1012.53,90.0
2018-08-28 04:50,50.6304366666667,-96.9807683333333,12.6,15.8,56,986.22,13.6,66,18.31,0.0,1012.65,90.0
2018-08-28 05:00,50.6304166666667,-96.9807566666667,11.6,14.7,58,986.18,13.6,66,18.32,0.0,1012.61,159.9
2018-08-28 05:10,50.6304333333333,-96.9807633333333,10.7,14.1,53,986.22,13.6,64,18.33,0.0,1012.66,159.9
2018-08-28 05:20,50.6304366666667,-96.9807666666667,11.5,15.9,60,986.14,13.5,64,18.32,0.0,1012.58,159.9
2018-08-28 05:30,50.6304366666667,-96.9807666666667,12.9,16.1,53,985.99,13.5,63,18.31,0.0,1012.44,159.9
2018-08-28 05:40,50.630435,-96.9807683333333,9.7,14.6,47,986.07,13.4,63,18.31,0.0,1012.53,159.9
2018-08-28 05:50,50.630435,-96.9807683333333,10.1,13.8,55,986.11,13.4,64,18.30,0.0,1012.58,159.9
2018-08-28 06:00,50.63044,-96.9807816666667,11.5,15.2,57,986.10,13.3,64,18.29,0.0,1012.58,305.3
2018-08-28 06:10,50.630425,-96.9807833333333,11.6,14.7,58,986.02,13.2,65,18.28,0.0,1012.51,305.3
2018-08-28 06:20,50.630445,-96.9807683333333,11.1,14.9,61,986.05,13.2,64,18.26,0.0,1012.54,305.3
2018-08-28 06:30,50.6304366666667,-96.9807833333333,10.4,14.5,66,986.13,13.1,67,18.26,0.0,1012.63,305.3
2018-08-28 06:40,50.6304366666667,-96.9807766666667,9.5,12.7,68,986.15,13.1,68,18.27,0.0,1012.65,305.3
2018-08-28 06:50,50.6304366666667,-96.9807783333333,9.7,13.2,67,986.20,13.1,66,18.25,0.0,1012.70,305.3
2018-08-28 07:00,50.6304366666667,-96.980775,9.2,11.9,69,986.22,13.1,64,18.23,0.0,1012.72,192.6
2018-08-28 07:10,50.6304366666667,-96.980775,8.6,11.7,69,986.31,13.1,65,18.21,0.0,1012.82,192.6
2018-08-28 07:20,50.630435,-96.9807733333333,8.4,11.3,67,986.38,13.2,63,18.21,0.0,1012.89,192.6
2018-08-28 07:30,50.630435,-96.9807733333333,9.0,12.0,71,986.39,13.2,63,18.20,0.0,1012.90,192.6
2018-08-28 07:40,50.6304333333333,-96.9807716666667,8.6,12.0,71,986.44,13.2,63,18.18,0.0,1012.95,192.6
2018-08-28 07:50,50.6304233333333,-96.980775,7.9,11.7,76,986.42,13.2,62,18.18,0.0,1012.93,192.6
2018-08-28 08:00,50.6304333333333,-96.9807666666667,8.1,11.5,64,986.42,13.1,61,18.18,0.0,1012.95,360.0
2018-08-28 08:10,50.6304383333333,-96.9807616666667,7.6,11.7,60,986.48,13.1,61,18.16,0.0,1013.01,360.0
2018-08-28 08:20,50.6304366666667,-96.9807616666667,6.5,9.5,66,986.65,13.1,63,18.15,0.0,1013.19,360.0
2018-08-28 08:30,50.6304316666667,-96.980765,6.5,10.4,60,986.76,13.1,65,18.15,0.0,1013.30,360.0
2018-08-28 08:40,50.6304333333333,-96.980765,6.7,9.6,62,986.83,13.2,67,18.14,0.0,1013.37,360.0
2018-08-28 08:50,50.6304333333333,-96.9807666666667,5.6,9.2,60,986.90,13.1,66,18.13,0.0,1013.44,360.0
2018-08-28 09:00,50.6304333333333,-96.9807666666667,7.1,9.7,73,986.93,13.2,65,18.14,0.0,1013.47,130.6
2018-08-28 09:10,50.6304333333333,-96.9807683333333,7.6,10.0,67,986.92,13.2,63,18.13,0.0,1013.45,130.6
2018-08-28 09:20,50.6304416666667,-96.98076,7.5,11.2,71,987.00,13.3,64,18.12,0.0,1013.54,130.6
2018-08-28 09:30,50.63044,-96.980765,7.4,11.2,74,987.09,13.3,64,18.12,0.0,1013.63,130.6
2018-08-28 09:40,50.6304333333333,-96.98079,8.0,12.0,74,987.13,13.2,65,18.10,0.0,1013.68,130.6
2018-08-28 09:50,50.6304333333333,-96.9807716666667,7.8,10.4,77,987.06,13.2,68,18.07,0.0,1013.60,130.6
2018-08-28 10:00,50.630435,-96.9807716666667,9.3,11.7,75,987.08,13.2,69,18.04,0.0,1013.63,0.0
2018-08-28 10:10,50.630435,-96.9807733333333,9.0,12.4,78,987.09,13.0,71,18.03,0.0,1013.64,0.0
2018-08-28 10:20,50.630435,-96.98077,9.5,12.0,72,987.04,12.9,71,17.98,0.0,1013.60,0.0
2018-08-28 10:30,50.630435,-96.98077,8.5,10.8,72,987.09,12.9,68,17.96,0.0,1013.65,0.0
2018-08-28 10:40,50.6304366666667,-96.9807683333333,8.2,10.9,70,987.08,12.8,66,17.95,0.0,1013.65,0.0
2018-08-28 10:50,50.630435,-96.9807683333333,8.1,11.6,82,987.14,12.9,66,17.95,0.0,1013.70,0.0
2018-08-28 11:00,50.6304333333333,-96.98077,7.6,10.4,83,987.13,12.8,66,17.94,0.0,1013.69,0.0
2018-08-28 11:10,50.6304333333333,-96.9807716666667,6.6,9.2,71,987.13,12.8,64,17.92,0.0,1013.68,0.0
2018-08-28 11:20,50.630435,-96.9807733333333,5.6,9.1,71,987.15,12.9,59,17.90,0.0,1013.70,0.0
2018-08-28 11:30,50.6304383333333,-96.9807866666667,6.0,8.9,66,987.18,13.0,60,17.91,0.0,1013.73,0.0
2018-08-28 11:40,50.6304366666667,-96.9807783333333,4.5,6.6,87,987.27,13.0,56,17.90,0.0,1013.82,0.0
2018-08-28 11:50,50.6304383333333,-96.9807816666667,4.6,7.4,76,987.29,13.0,58,17.89,0.0,1013.85,0.0
2018-08-28 12:00,50.6304316666667,-96.9807666666667,4.6,8.1,88,987.32,13.1,58,17.89,0.0,1013.89,0.0
2018-08-28 12:10,50.63044,-96.9807766666667,5.5,8.9,74,987.37,13.1,58,17.91,0.0,1013.94,0.0
2018-08-28 12:20,50.63044,-96.9807633333333,5.5,7.7,66,987.39,13.1,58,17.92,0.0,1013.96,0.0
2018-08-28 12:30,50.63044,-96.980765,5.1,8.2,72,987.41,13.2,58,17.92,0.0,1013.98,0.0
2018-08-28 12:40,50.6304416666667,-96.9807683333333,5.4,8.9,78,987.50,13.2,57,17.93,0.0,1014.06,0.0
2018-08-28 12:50,50.6304366666667,-96.9807816666667,6.0,8.0,75,987.55,13.2,56,17.93,0.0,1014.12,0.0
2018-08-28 13:00,50.6304333333333,-96.9807566666667,5.4,8.8,80,987.55,13.3,57,17.91,0.0,1014.12,119.2
2018-08-28 13:10,50.630435,-96.9807583333333,6.4,8.8,78,987.70,13.3,55,17.90,0.0,1014.27,119.2
2018-08-28 13:20,50.6304366666667,-96.9807583333333,5.6,8.4,87,987.85,13.4,56,17.90,0.0,1014.42,119.2
2018-08-28 13:30,50.6304383333333,-96.98076,5.5,8.1,100,987.92,13.5,57,17.91,0.0,1014.48,119.2
2018-08-28 13:40,50.6304383333333,-96.9807616666667,5.7,8.8,92,988.08,13.5,56,17.87,0.0,1014.64,119.2
2018-08-28 13:50,50.6304366666667,-96.9807616666667,6.4,9.1,92,988.13,13.4,58,17.85,0.0,1014.69,119.2
2018-08-28 14:00,50.6304366666667,-96.980765,7.1,10.1,97,988.16,13.5,62,17.84,0.0,1014.72,38.0
2018-08-28 14:10,50.6304766666667,-96.9808083333333,7.1,9.8,89,988.23,13.3,64,17.84,0.0,1014.80,38.0
2018-08-28 14:20,50.6304283333333,-96.98077,6.6,9.1,92,988.27,13.2,63,17.84,0.0,1014.84,38.0
2018-08-28 14:30,50.630435,-96.9807733333333,7.4,10.1,102,988.32,13.2,65,17.83,0.0,1014.89,38.0
2018-08-28 14:40,50.6304366666667,-96.9807766666667,7.8,10.4,103,988.39,13.2,64,17.82,0.0,1014.97,38.0
2018-08-28 14:50,50.6304116666667,-96.98077,8.2,10.4,107,988.43,13.1,65,17.81,0.0,1015.01,38.0
2018-08-28 15:00,50.630435,-96.9807716666667,9.0,11.2,108,988.55,12.9,65,17.81,0.0,1015.15,311.7
2018-08-28 15:10,50.6304366666667,-96.9807733333333,9.2,11.7,118,988.63,12.7,66,17.80,0.0,1015.23,311.7
2018-08-28 15:20,50.6304366666667,-96.980775,9.1,12.6,125,988.67,12.6,68,17.80,0.0,1015.27,311.7
2018-08-28 15:30,50.630435,-96.9807766666667,8.4,12.7,124,988.76,12.5,67,17.79,0.0,1015.37,311.7
2018-08-28 15:40,50.630435,-96.980775,7.9,10.9,137,988.81,12.2,66,17.77,0.0,1015.43,311.7
2018-08-28 15:50,50.6304366666667,-96.9807733333333,8.0,10.8,132,988.91,12.5,66,17.77,0.0,1015.52,311.7
2018-08-28 16:00,50.6304366666667,-96.980775,8.1,11.7,138,988.94,12.5,65,17.76,0.0,1015.56,299.2
2018-08-28 16:10,50.6304333333333,-96.980785,8.5,10.3,145,989.01,12.3,64,17.76,0.0,1015.65,299.2
2018-08-28 16:20,50.6304333333333,-96.9807733333333,8.0,10.8,138,988.98,12.7,65,17.77,0.0,1015.59,299.2
2018-08-28 16:30,50.6304333333333,-96.98077,8.6,11.1,143,988.93,12.6,64,17.76,0.0,1015.55,299.2
2018-08-28 16:40,50.6304466666667,-96.9807666666667,8.0,10.6,153,988.96,12.4,64,17.75,0.0,1015.60,299.2
2018-08-28 16:50,50.6304433333333,-96.9807683333333,8.0,10.3,159,988.96,12.4,64,17.74,0.0,1015.61,299.2
2018-08-28 17:00,50.6304416666667,-96.9807683333333,7.7,10.5,146,988.87,12.6,64,17.74,0.0,1015.52,38.0
2018-08-28 17:10,50.6304533333333,-96.98079,7.1,9.1,153,988.83,12.4,63,17.74,0.0,1015.48,38.0
2018-08-28 17:20,50.6304516666667,-96.98078,6.8,9.9,145,988.74,12.6,63,17.74,0.0,1015.38,38.0
2018-08-28 17:30,50.6304516666667,-96.980775,7.4,10.9,162,988.68,12.5,65,17.76,0.0,1015.35,38.0
2018-08-28 17:40,50.63045,-96.980775,7.1,9.4,151,988.70,12.5,65,17.77,0.0,1015.35,38.0
2018-08-28 17:50,50.6304483333333,-96.980775,7.4,9.6,156,988.69,12.4,65,17.79,0.0,1015.35,38.0
2018-08-28 18:00,50.6304483333333,-96.9807733333333,6.9,9.8,149,988.59,12.6,65,17.80,0.0,1015.24,360.0
2018-08-28 18:10,50.6304466666667,-96.9807716666667,7.5,10.2,141,988.53,12.8,65,17.82,0.0,1015.15,360.0
2018-08-28 18:20,50.6304466666667,-96.9807733333333,7.4,9.3,138,988.44,13.0,64,17.84,0.0,1015.06,360.0
2018-08-28 18:30,50.630445,-96.9807733333333,7.5,9.8,141,988.39,12.9,65,17.86,0.0,1015.02,360.0
2018-08-28 18:40,50.630445,-96.9807733333333,7.3,9.8,138,988.46,13.1,64,17.88,0.0,1015.08,360.0
2018-08-28 18:50,50.630445,-96.9807733333333,7.8,10.0,135,988.47,13.5,63,17.90,0.0,1015.06,360.0
2018-08-28 19:00,50.63045,-96.9807883333333,7.4,9.5,130,988.42,13.9,61,17.93,0.0,1015.00,328.9
2018-08-28 19:10,50.6304416666667,-96.98078,9.1,11.3,123,988.49,14.2,60,17.94,0.0,1015.05,328.9
2018-08-28 19:20,50.6304383333333,-96.980775,9.5,11.6,125,988.50,14.3,59,17.95,0.0,1015.06,328.9
2018-08-28 19:30,50.6304183333333,-96.9808166666667,10.1,12.5,120,988.48,14.5,60,17.96,0.0,1015.03,328.9
2018-08-28 19:40,50.630455,-96.98079,10.6,12.3,121,988.44,14.5,60,17.95,0.0,1014.99,328.9
2018-08-28 19:50,50.63043,-96.98078,10.1,11.7,117,988.39,14.5,59,17.92,0.0,1014.94,328.9
2018-08-28 20:00,50.63043,-96.9807783333333,10.1,11.8,119,988.38,14.6,58,17.91,0.0,1014.91,221.2
2018-08-28 20:10,50.6304333333333,-96.9807733333333,10.0,11.6,120,988.37,14.7,59,17.94,0.0,1014.88,221.2
2018-08-28 20:20,50.63045,-96.9807666666667,9.2,11.2,125,988.25,14.9,55,17.94,0.0,1014.76,221.2
2018-08-28 20:30,50.6304416666667,-96.980765,9.8,11.6,122,988.13,14.9,57,17.93,0.0,1014.63,221.2
2018-08-28 20:40,50.63044,-96.98078,9.9,11.5,119,987.97,15.1,55,17.95,0.0,1014.44,221.2
2018-08-28 20:50,50.6304433333333,-96.9807816666667,9.9,12.3,122,987.94,15.3,56,17.96,0.0,1014.37,221.2
2018-08-28 21:00,50.6304316666667,-96.98078,9.3,10.6,115,987.88,15.4,54,17.97,0.0,1014.30,212.5
2018-08-28 21:10,50.630435,-96.9807766666667,9.9,12.3,113,987.83,15.6,54,17.99,0.0,1014.23,212.5
2018-08-28 21:20,50.6304316666667,-96.9807733333333,9.7,12.7,112,987.69,15.7,55,17.98,0.0,1014.08,212.5
2018-08-28 21:30,50.6304516666667,-96.9807833333333,10.1,11.9,115,987.58,15.7,54,17.96,0.0,1013.96,212.5
2018-08-28 21:40,50.6304383333333,-96.9807633333333,10.2,12.1,114,987.47,15.6,55,17.98,0.0,1013.85,212.5
2018-08-28 21:50,50.6304416666667,-96.9807616666667,9.5,11.5,119,987.41,15.8,56,18.00,0.0,1013.78,212.5
2018-08-28 22:00,50.63044,-96.9807633333333,9.2,11.0,121,987.32,15.7,58,18.01,0.0,1013.69,122.3
2018-08-28 22:10,50.6304366666667,-96.9807583333333,9.6,12.0,122,987.27,15.7,58,18.01,0.0,1013.62,122.3
2018-08-28 22:20,50.6304366666667,-96.98076,9.1,10.8,121,987.24,15.7,59,17.99,0.0,1013.60,122.3
2018-08-28 22:30,50.630435,-96.9807633333333,9.1,11.4,125,987.22,15.8,60,17.98,0.0,1013.56,122.3
2018-08-28 22:40,50.6304216666667,-96.9807583333333,9.9,12.4,127,987.22,15.8,59,17.99,0.0,1013.54,122.3
2018-08-28 22:50,50.63044,-96.9807733333333,9.1,11.3,128,987.17,15.8,58,18.00,0.0,1013.50,122.3
2018-08-28 23:00,50.6304383333333,-96.9807716666667,7.8,10.2,134,987.12,15.7,59,18.00,0.0,1013.43,3.2
2018-08-28 23:10,50.6304316666667,-96.9807633333333,8.9,11.9,135,987.13,15.8,58,17.99,0.0,1013.44,3.2
2018-08-28 23:20,50.6304333333333,-96.9807633333333,8.5,10.9,137,987.13,15.8,59,17.98,0.0,1013.43,3.2
2018-08-28 23:30,50.630435,-96.980765,8.8,11.4,140,987.16,15.7,58,17.97,0.0,1013.48,3.2
2018-08-28 23:40,50.630435,-96.9807666666667,9.3,11.7,140,987.22,15.8,59,17.96,0.0,1013.53,3.2
